DECAYED
Showing default

ASTROCAST-0304, 54367 (Decayed)

Orbit data source: Space-Track

ASTROCAST-0304, 54367 was a payload satellite owned by Astrocast (CH) in SSO that was launched on Sat, 26 Nov 2022 UTC via a PSLV-XL launch vehicle from the Sirharikota (SRI). Payload-class satellites include a variety of spacecraft equipped with specific instruments for various scientific and technological missions. These include communications satellites like Starlink; space stations such as the ISS; scientific satellites like the Hubble; Earth observation satellites from companies like Planet Labs, Umbra, and HawkEye 360; GPS; miniature CubeSats for education and research; and military/defense satellites.

Not visible in the next 10 days
Identifier
54367, 2022-158G
Orbit
Decayed
Country
Flag of UnknownUnknown / SWTZ
Related business
Manufacturer
Astrocast
Mission
Decayed Commercial Communications
Bus & Motor
CUBESAT 3U, Unknown motor
Mass
4.5 kg wet, 4.5 kg dry
Launch date (UTC)
2022-11-26 (3 years ago)
Launch vehicle
PSLV-XL
Launch site
Sirharikota (SRI)
Object type
Payload
Rocket body
Debris
Shape & HBR
Box, 0.1 m
Radar Cross Section
0.035 m², Medium (>0.1 m² and < 1m²)

Expand to show TLE details & history
Last TLE update: 4 months ago

TLE from 4 months ago
0 ASTROCAST-0304
1 54367U 22158G   25235.23784089  .02102816  39056-2  26424-2 0  9996
2 54367  97.4171 359.6860 0017670 291.3968  68.5429 16.08257222153796
Epoch: 2025-08-23T05:42Z
TLE epoch observation values (Epoch: 2025-08-23T05:42:29.452Z)
Latitude
-0.00005°
Longitude
-57.71219°
Altitude
250.569 km
Speed
7.759 km/s
True Right ascension
23h 58m 44s
True Declination
0° 00' 00"
Sunlit
Object was in full shadow at epoch
Visualization orbit readout
Latitude
Unknown
Longitude
Unknown
Altitude
Unknown
Speed
Unknown
Apparent Right ascension
Unknown
Apparent Declination
Unknown
Sunlit
N/A
Visualization observer readout
Local Sidereal Time
07:32:42
Azimuth
Unknown
Elevation
Unknown
Doppler factor
Unknown
Orbital elements
Apogee altitude
260.187 km
Perigee altitude
236.769 km
Semi-major axis
6,626.615 km
Eccentricity
0.00177
Inclination
97.4171°
RAAN
359.686°
Arg. of periapsis
291.3968°
True anomaly
68.7315°
Mean anomaly
68.5429°
Eccentric anomaly
68.63719°
Mean motion
4.02351 °/min
Orbital period
89.47 mins
BSTAR
0.0026424
Loading maneuver chart data...
Computing Atmospheric mass density...
Loading historical data...
Loading historical data...
Loading historical data...
Loading historical data...
Loading historical data...
Loading historical data...
Loading historical data...

Documentation

Showing up to 5 results
|